www.pogodaiklimat.ru

Погода и климат >> Архив погоды >> Мьянма >> Тандве


ПОГОДА в Тандве

  • Прогноз погоды в Тандве
  • Монитор погоды в Тандве

АРХИВ ПОГОДЫ в Тандве

Время (UTC), дата Ветер
(напр.,м/с)
 
Видим.   Явления Облачность Т
(С)
Тd
(С)
f
(%)
Тe
(С)
Тes
(С)
Комфортность P
(гПа)
Po
(гПа)
Тmin
(С)
Tmax
(С)
R
(мм)
R24
(мм)
S
(см)
00 14.03 штиль 0 800 м туман на расстоянии ясно +18.0 +17.5 97 +18 +18 1013.0 1011.7 +16.5
03 14.03 штиль 0 10 км {туман} ясно +24.0 +20.9 83 +30 +45 очень
душно
1014.4 1013.1
06 14.03 ЮЗ 5 12 км ясно +36.5 +25.8 54 +51 +62 опасность
перегрева
1012.5 1011.3
09 14.03 ЮЗ 6 12 км ясно +36.0 +27.8 63 +56 +59 опасность
перегрева
1009.4 1008.2
12 14.03 штиль 0 6000 м ясно +30.0 +25.3 76 +44 +44 опасность
перегрева
1010.1 1008.8 +37.8
15 14.03 штиль 0 5000 м ясно +25.0 +29.0 100 +36 +36 очень
душно
1012.2 1010.9
03 15.03 В 1 10 км ясно +25.0 +20.5 76 +31 +44 очень
душно
1014.7 1013.4
06 15.03 ЮЗ 5 12 км ясно +34.5 +28.0 69 +55 +65 опасность
перегрева
1013.3 1012.1
09 15.03 ЮЗ 5 12 км ясно +34.0 +28.8 74 +57 +61 опасность
перегрева
1010.6 1009.4
12 15.03 З 1 8000 м ясно +30.0 +25.3 76 +44 +44 опасность
перегрева
1011.0 1009.7 +35.8
15 15.03 штиль 0 5000 м ясно +25.0 +21.9 83 +32 +32 очень
душно
1013.2 1011.9
00 16.03 штиль 0 3000 м дымка 3/3 600 м
[Cu Sc]
+20.0 +18.5 91 +23 +23 комфорт 1014.4 1013.1 +18.0
03 16.03 штиль 0 10 км ясно +26.0 +20.3 71 +32 +47 очень
душно
1014.4 1013.1
06 16.03 ЮЗ 5 12 км ясно +33.5 +27.0 69 +52 +62 опасность
перегрева
1014.1 1012.9
09 16.03 ЮЗ 5 12 км ясно +34.5 +28.0 69 +55 +60 опасность
перегрева
1010.7 1009.5
12 16.03 ЮЗ 1 6000 м ясно +29.5 +25.3 78 +43 +43 опасность
перегрева
1010.4 1009.1 +36.0
15 16.03 штиль 0 5000 м ясно +25.0 +21.9 83 +32 +32 очень
душно
1013.0 1011.7
00 17.03 штиль 0 3000 м дымка ясно +20.0 +18.5 91 +23 +23 комфорт 1012.3 1011.0 +18.0
03 17.03 штиль 0 10 км ясно +27.0 +22.6 77 +36 +51 опасность
солнечного
удара
1014.4 1013.1
06 17.03 ЮЗ 6 12 км ясно +33.0 +27.5 73 +52 +60 опасность
перегрева
1013.6 1012.4
12 17.03 ЮЗ 1 6000 м ясно +29.0 +25.9 83 +43 +43 опасность
перегрева
1010.2 1008.9 +34.5
15 17.03 штиль 0 5000 м ясно +26.0 +21.5 76 +33 +33 очень
душно
1012.0 1010.7
00 18.03 штиль 0 600 м туман на расстоянии ясно +21.6 +20.5 93 +27 +27 душно 1011.0 1009.7 +19.6
03 18.03 штиль 0 10 км {туман} 1/1 600 м
[Cu hum]
+27.0 +24.0 84 +37 +51 опасность
солнечного
удара
1012.7 1011.4
06 18.03 ЮЗ 2 12 км ясно +36.0 +27.8 63 +56 +76 опасность
перегрева
1011.8 1010.6
09 18.03 ЮЗ 6 12 км ясно +36.0 +27.8 63 +56 +60 опасность
перегрева
1008.5 1007.3
12 18.03 ЮЗ 1 6000 м ясно +30.5 +26.7 80 +47 +47 опасность
перегрева
1008.4 1007.2 +36.4
15 18.03 штиль 0 5000 м ясно +26.0 +21.4 76 +33 +33 очень
душно
1010.6 1009.3
00 19.03 штиль 0 3000 м ясно +19.0 +17.8 93 +20 +21 1010.1 1008.8 +17.0
03 19.03 В 1 10 км ясно +26.0 +22.9 83 +35 +48 очень
душно
1011.7 1010.4
06 19.03 ЮЗ 6 12 км ясно +34.0 +28.8 74 +57 +65 опасность
перегрева
1011.0 1009.8
09 19.03 ЮЗ 7 12 км ясно +34.0 +28.8 74 +57 +59 опасность
перегрева
1008.5 1007.3
12 19.03 ЮЗ 2 8000 м 1/1 600 м
[Cu hum]
+30.0 +22.3 63 +39 +39 очень
душно
1008.8 1007.5 +35.4
15 19.03 штиль 0 5000 м ясно +24.0 +20.9 83 +30 +30 очень
душно
1010.8 1009.5
00 20.03 штиль 0 3000 м дымка ясно +18.0 +17.5 97 +18 +18 1010.0 1008.7 +16.8
03 20.03 штиль 0 10 км ясно +26.0 +21.5 76 +33 +49 очень
душно
1012.9 1011.6
06 20.03 СЗ 5 12 км ясно +35.0 +24.0 53 +47 +57 опасность
перегрева
1011.6 1010.4
09 20.03 ЮЗ 6 12 км ясно +36.0 +26.4 58 +53 +56 опасность
перегрева
1009.4 1008.2
12 20.03 ЮЗ 1 6000 м ясно +29.5 +25.3 78 +43 +43 опасность
перегрева
1009.6 1008.3 +37.0
15 20.03 штиль 0 5000 м ясно +25.0 +21.9 83 +32 +32 очень
душно
1011.5 1010.2

 

Местоположение метеостанции Тандве (Мьянма): широта 18.47 долгота 94.35 высота над уровнем моря 11 м.

В архиве по умолчанию представлена погода в Тандве за последнюю неделю. Архивные данные за месяц целиком и за предыдущие месяцы, начиная с января 2011 года, Вы можете получить, выбрав интересующий диапазон дат из раскрывающегося списка и нажав кнопку "Ввод!".


*Определитесь, кто Вы:
робот инопланетянин человек

Внимание! Время в таблицах - всемирное. Для получения местного времени необходимо прибавить поправку, которая равна 6.5 ч.

Смотрите также архив погоды в соседних городах и на ближайших метеорологических станциях:

Погода в Манаунге (Мьянма) (78 км)
Погода в Проме (Мьянма) (99 км)
Погода в Гва (Мьянма) (102 км)
Погода в Кяокпю (Мьянма) (135 км)
Погода в Хинтаде (Мьянма) (144 км)
Погода в Бассейне (Мьянма) (194 км)
Погода в Минбу (Мьянма) (197 км)
Погода в Магуэе (Мьянма) (197 км)
Погода в Таунгу (Мьянма) (229 км)
Погода в Хмавби (Мьянма) (234 км)

Пояснения к столбцам:

Ветер - указаны скорость ветра в м/с - средняя за 10 мин, порывы в срок и между сроками (в фигурных скобках) и направление, откуда дует ветер: С - северный, СВ - северо-восточный, В - восточный, ЮВ - юго-восточный, Ю - южный, ЮЗ - юго-западный, З - западный, СЗ - северо-западный.
Видимость - горизонтальная дальность видимости в метрах или километрах. При видимости от 1 до 10 км при отсутствии осадков обычно наблюдается дымка, при ухудшении видимости до 1 км и менее - туман. В сухую погоду видимость может ухудшаться дымом, пылью или мглою.
Явления - указаны атмосферные явления, наблюдавшиеся в срок или в последний час перед сроком; фигурными скобками обозначены явления, наблюдавшиеся между сроками (за 1-3 часа до срока); квадратными скобками обозначены град или гололедные отложения с указанием их диаметра в мм.
Облачность - указаны через наклонную черту общая и нижняя облачность в баллах и высота нижней границы облаков в метрах; квадратными скобками обозначены формы облаков: Ci - перистые, Cs - перисто-слоистые, Cc - перисто-кучевые, Ac - высококучевые, As - высокослоистые, Sc - слоисто-кучевые, Ns - слоисто-дождевые, Cu - кучевые, Cb - кучево-дождевые. Подробнее классификацию облаков см. в Атласе облаков (PDF).
T - Температура воздуха - температура, измеренная на высоте 2 м над землей.
Td - Температура точки росы - температура, при понижении до которой содержащийся в воздухе водяной пар достигнет насыщения.
f - Относительная влажность воздуха - влажноcть воздуха, измеренная на высоте 2 м над землей.
Te - Эффективная температура - температура, которую ощущает одетый по сезону человек в тени. Характеристика душности погоды. При расчете учитывается влияние влажности воздуха и скорости ветра на теплоощущения человека.
Tes - Эффективная температура на солнце - температура, которую ощущает человек, с поправкой на солнечный нагрев. Характеристика знойности погоды. Зависит от высоты солнца над горизонтом, облачности и скорости ветра. Ночью, в пасмурную погоду, а также при ветре 12 м/с и более поправка равна нулю.
P - Атмосферное давление - приведенное к уровню моря атмосферное давление.
Po - Атмосферное давление - измеренное на уровне метеостанции атмосферное давление.
Tmin - Минимальная температура - минимум температуры воздуха на высоте 2 м над землей.
Tmax - Максимальная температура - максимум температуры воздуха на высоте 2 м над землей.
R - Количество осадков - Количество выпавших осадков за период времени, мм. При наведении курсора мыши на число - период времени, за который выпало указанное количество осадков.
R24 - Количество осадков - Количество выпавших осадков за 24 часа, мм.
S - Снежный покров - Высота снежного покрова, см. При наведении курсора мыши на число - состояние снежного покрова и степень покрытия местности в баллах.